Flag for Slovenia Weather past 2 weeks in Ljubljana, Slovenia

Now
46 °F

Clear.


Feels Like: 46 °F
Forecast: 29 / 66 °F
Wind: No wind

Location: Ljubljana / Bezigrad

Current Time: Apr 19, 2015 at 11:52:35 PM

Latest Report: Apr 19, 2015 at 10:00 PM


Visibility: 31 mi

Pressure: 30.18 "Hg

Humidity: 61%

Dew point: 33 °F

Location of LjubljanaLocation

Historic Weather in Ljubljana — Graph

°F

Ljubljana temperature yesterday

Maximum temperature yesterday: 55 °F (at 12:00 AM)
Minimum temperature yesterday: 37 °F (at 1:00 PM)
Average temperature yesterday: 45 °F

Past Weeks' High & Low Weather Summary

 TemperatureHumidityPressure
High76 °F (Apr 15, 3:00 PM)100% (Apr 19, 5:00 AM)30.52 "Hg (Apr 19, 5:00 AM)
Low34 °F (Apr 6, 7:00 AM)22% (Apr 7, 3:00 PM)29.89 "Hg (Apr 4, 10:00 PM)
Average52 °F55%30.21 "Hg
* Reported Apr 4 10:00 PM — Apr 19 10:00 PM, Ljubljana, Weather by CustomWeather, © 2015

Note: Actual official high and low records may vary slightly from our data, if they occured in-between our weather recording intervals... More about our weather records

Advertising

Ljubljana weather history for previous 24 hours

 ConditionsComfort  
Time TempWeatherWind HumidityBarometerVisibility
10:00 PM
Sun, Apr 19
46 °FClear.No wind61%30.18 "Hg31 mi
9:00 PM48 °FClear.1 mph53%30.16 "Hg31 mi
8:00 PM51 °FClear.1 mph44%30.13 "Hg31 mi
7:00 PM53 °FPassing clouds.2 mph41%30.11 "Hg31 mi
6:00 PM55 °FPassing clouds.2 mph40%30.10 "Hg31 mi
5:00 PM56 °FPassing clouds.2 mph39%30.11 "Hg25 mi
4:00 PM55 °FPassing clouds.2 mph40%30.13 "Hg25 mi
3:00 PM54 °FPassing clouds.1 mph44%30.15 "Hg25 mi
2:00 PM53 °FScattered clouds.2 mph46%30.19 "Hg19 mi
1:00 PM51 °FScattered clouds.1 mph47%30.21 "Hg16 mi
12:00 PM46 °FPartly sunny.1 mph60%30.23 "Hg16 mi
11:00 AM44 °FPassing clouds.1 mph71%30.25 "Hg9 mi
10:00 AM38 °FFog.No wind88%30.28 "Hg2 mi
9:00 AM36 °FFog.1 mph99%30.28 "Hg1 mi
8:00 AM35 °FFog.No wind99%30.28 "Hg0 mi
7:00 AM34 °FFog.1 mph100%30.27 "Hg0 mi
6:00 AM35 °FFog.1 mph100%30.27 "Hg0 mi
5:00 AM35 °FChilly.1 mph100%30.27 "HgN/A
4:00 AM37 °FChilly.1 mph99%30.26 "HgN/A
3:00 AM37 °FChilly.1 mph99%30.27 "HgN/A
2:00 AM37 °FChilly.1 mph99%30.27 "HgN/A
1:00 AM38 °FChilly.1 mph96%30.27 "HgN/A
12:00 AM39 °FChilly.No wind95%30.26 "HgN/A
11:00 PM
Sat, Apr 18
40 °FChilly.No wind93%30.25 "HgN/A
Weather by CustomWeather, © 2015

See weather overviewHow to use our weather pages